Location: Alphen
(52.1351°N, 4.6549°E)
Time: 01:16:57
(UTC+00:00)

Cosmos 1464 Rocket - Pass Details

Date: 27 January 2021
Orbit: 953 x 1000 km, 82.9° (Epoch: 26 February)

Event Time Altitude Azimuth Distance (km) Brightness Sun altitude
Exits shadow 04:13:46 33° 174° (S) 1,561 5.0 -29.8°
Maximum altitude 04:16:42 74° 96° (E) 1,001 4.0 -29.3°
Drops below altitude 10° 04:22:53 10° 13° (NNE) 2,716 6.5 -28.4°
Sets 04:25:25 0° 12° (NNE) 3,674 7.2 -28.0°
